SCP
-0 -0 -0 -0 -0 -0 -0 -0 -0 -0 0 0 0 0 0 0 0 0 0 0 0 0 0 0 0 0 0 0 0 0 0 0
0 0 -0 -0 -0 -0 -0 0 0 0 -0 -0 0 0 0 0 0 0 0 0 0 0 0 0 0 0 0 0 0 0 0 0
-0 -0 -0 0 0 0 0 0 0 0 0 0 -0 -0 -0 -0 0 0 0 0 0 0 0 0 0 0 0 0 0 0 0 0
0 0 0 0 0 0 0 0 0 -0 -0 -0 -0 -0 -0 -0 -0 -0 -0 -0 0 0 0 0 0 0 0 0 0 0 0 0
0 0 0 0 0 0 0 0 0 -0 -0 -0 -0 -0 -0 -0 -0 -0 -0 -0 -0 -0 0 0 0 0 0 0 0 0 0 0
0 0 0 0 0 0 -0 -0 -0 -0 -0 -0 -0 0 0 0 0 -0 -0 -0 0 0 0 0 0 0 0 0 0 0 0 0
0 -0 -0 -0 -0 -0 -0 -0 -0 -0 -0 -0 0 0 0 0 -0 -0 0 -0 -0 0 0 0 0 0 0 0 0 0 0 0
0 0 -0 -0 0 -0 -0 -0 -0 -0 0 0 0 0 0 0 0 0 0 0 -0 -0 -0 0 0 0 0 0 0 0 0 0
0 0 0 0 0 0 0 0 -0 -0 -0 -0 -0 0 0 0 0 0 0 0 0 0 0 0 0 -0 0 0 0 0 0 0
0 0 0 0 0 0 0 0 0 0 -0 0 0 0 0 0 0 0 0 0 0 0 0 0 0 0 0 0 0 0 0 0
0 0 0 0 0 0 0 0 0 0 0 0 0 0 0 0 0 0 0 0 0 0 0 0 0 0 0 0 0 0 0 0
0 0 0 0 0 0 0 0 0 0 0 0 0 0 0 0 0 0 0 0 0 0 0 0 0 0 0 0 0 0 0 0
0 0 0 0 0 0 0 0 0 0 0 0 0 0 0 0 0 0 0 0 0 0 0 0 0 0 0 0 0 0 0 0
0 0 0 0 0 0 0 0 0 0 0 0 0 0 0 0 0 0 0 0 0 0 0 0 0 0 0 0 0 0 0 0
0 0 0 0 0 0 0 0 0 0 0 0 0 0 0 0 0 0 0 0 0 0 0 0 0 0 0 0 0 0 0 0
0 0 0 0 0 0 0 0 0 0 0 0 0 0 0 0 0 0 0 0 0 0 0 0 0 0 0 0 0 0 0 0
0 0 0 0 0 0 0 0 0 0 0 0 0 0 0 0 0 0 0 0 0 -0 0 0 0 -0 -0 -0 0 0 0 0
0 0 0 0 0 0 0 0 0 0 0 0 0 0 0 0 0 0 0 0 0 0 0 0 -0 -0 -0 -0 0 0 0 0
0 0 0 0 0 0 0 0 0 0 0 0 0 0 0 0 0 0 0 0 0 0 0 0 0 -0 -0 -0 0 0 0 0
0 0 0 0 0 0 0 0 0 0 0 0 0 0 0 0 0 0 0 0 0 0 0 0 0 -0 -0 0 0 0 0 0
Wind_Speed_500mb
8 8 12 15 17 23 25 29 31 31 29 25 24 28 31 34 39 39 37 35 34 33 30 32 38 43 43 48 53 65 75 82
8 14 21 21 20 23 29 35 39 38 34 32 32 30 29 30 34 40 44 48 47 42 38 37 34 35 42 47 50 56 63 71
8 6 7 16 24 30 32 34 38 41 42 44 42 43 43 41 38 37 38 43 50 52 53 50 44 41 40 43 46 54 63 66
4 10 15 21 26 30 36 42 43 47 51 53 54 53 54 52 49 48 47 46 48 50 54 57 59 56 49 50 51 49 57 65
12 16 20 23 27 35 38 42 48 51 56 58 59 62 63 64 65 66 66 68 67 65 61 60 61 60 59 58 56 56 62 63
17 25 28 30 31 39 45 47 53 55 57 62 66 68 70 72 76 81 83 83 81 81 79 72 66 66 65 63 62 62 63 65
21 21 27 32 38 44 50 53 57 62 67 68 69 73 78 81 85 86 87 88 92 93 93 92 87 78 69 70 72 71 69 69
25 32 31 32 30 35 37 42 52 66 71 73 76 79 80 80 82 86 90 92 96 99 99 101 101 99 93 82 79 80 80 79
29 31 38 43 48 48 50 57 67 72 75 77 78 81 84 87 92 98 101 105 108 111 111 112 111 108 106 104 99 95 91 87
30 35 33 41 50 57 65 70 74 76 78 79 77 82 87 96 102 108 109 116 120 122 126 128 129 122 119 114 107 111 110 102
34 40 46 51 58 66 71 76 78 80 85 91 94 96 93 94 95 94 95 107 112 125 134 136 138 136 133 120 97 100 117 119
44 49 51 57 65 71 75 80 84 93 99 102 102 103 103 103 101 100 100 105 107 112 124 128 132 139 135 113 91 94 99 105
52 55 59 65 71 80 87 93 97 99 101 103 105 105 105 103 104 98 88 84 89 93 102 103 100 99 99 95 89 86 91 100
53 58 60 66 77 88 93 93 96 98 100 103 104 101 94 89 87 86 80 77 79 79 84 90 87 88 85 84 82 83 86 95
54 56 65 74 81 84 85 85 90 96 99 99 98 90 82 79 80 81 81 80 79 80 86 92 94 90 87 86 80 70 62 70
51 60 72 78 79 77 75 79 86 89 92 93 86 82 83 80 77 74 77 77 82 88 92 93 95 88 85 84 87 86 79 78
53 65 73 75 76 70 69 73 80 87 86 83 83 82 81 82 85 73 68 70 73 78 83 94 95 92 88 85 84 82 80 85
60 67 67 68 66 62 67 72 76 80 80 80 80 79 78 79 83 88 89 76 74 74 74 77 83 81 80 78 77 74 71 84
64 62 59 59 57 59 65 69 74 73 74 74 77 76 77 80 83 86 89 93 97 81 76 74 73 71 68 67 66 72 71 75
59 55 55 53 52 56 61 68 72 71 73 73 73 72 72 73 76 79 82 86 91 96 91 77 74 61 61 61 61 65 70 68
Wind_Direction_500mb
78 27 34 35 23 13 14 21 23 23 23 23 14 3 1 2 357 350 344 340 338 337 321 303 292 287 277 271 267 265 263 264
55 34 360 6 15 12 7 5 7 10 8 8 8 7 2 6 352 344 341 339 339 336 330 325 314 296 287 282 275 267 266 266
27 49 18 6 3 358 359 358 356 353 351 351 354 353 356 358 350 339 332 330 330 331 331 331 322 311 303 288 283 277 272 268
357 16 2 355 349 350 346 344 345 343 341 341 342 343 342 342 339 335 332 331 327 322 319 319 321 322 318 303 294 280 274 273
313 326 330 332 337 340 341 337 332 333 331 331 330 330 330 328 324 322 322 322 322 322 319 315 312 313 314 312 307 297 287 277
269 296 307 307 312 326 329 333 334 332 326 322 323 322 320 317 315 314 314 314 313 311 310 309 307 306 306 305 306 305 300 291
276 276 278 282 291 308 314 318 321 324 324 320 316 314 314 312 310 308 307 305 305 304 304 302 301 300 301 302 302 300 296 294
306 292 289 287 288 288 291 288 303 310 314 314 313 311 309 307 304 303 303 302 300 300 298 297 296 296 295 293 292 293 293 294
299 293 299 287 284 285 292 298 310 314 314 314 312 310 308 306 302 300 299 297 295 293 292 292 290 291 292 292 290 286 286 288
299 297 294 289 290 297 303 312 314 314 313 311 306 302 300 299 298 298 296 294 291 289 288 288 286 284 284 285 285 285 284 282
287 293 296 300 303 306 310 313 314 312 309 307 304 301 297 294 292 289 285 286 287 288 288 287 286 282 282 282 279 278 279 280
290 301 305 308 311 313 315 316 314 312 310 308 307 306 303 301 298 294 288 283 282 281 282 284 286 285 283 283 278 272 270 271
301 308 313 315 317 317 316 317 315 313 311 311 310 310 309 308 306 305 300 291 286 285 284 284 285 285 285 283 279 274 269 267
303 309 313 315 317 315 316 316 314 313 314 315 315 315 315 314 313 312 310 301 293 289 288 288 288 287 288 285 279 274 268 263
306 310 314 317 317 317 318 317 316 316 318 320 320 319 318 317 315 310 305 300 295 293 291 292 292 291 292 290 283 272 276 272
307 311 314 317 317 319 320 318 318 319 322 323 321 322 319 317 314 307 302 299 298 295 293 293 292 291 292 289 286 283 282 281
306 311 315 316 317 322 321 320 322 324 323 326 326 324 321 317 314 316 301 299 296 294 292 292 290 291 290 287 283 278 272 270
310 314 317 315 318 322 322 326 326 323 328 330 329 326 322 319 315 309 319 315 306 302 299 296 295 295 293 289 285 279 271 262
311 316 315 315 320 324 327 328 327 331 333 334 332 328 327 323 317 312 309 309 316 329 316 306 303 301 297 294 289 280 269 264
311 315 312 316 323 326 330 332 329 339 339 337 333 331 327 325 320 316 311 310 310 317 326 332 327 315 310 305 295 281 269 266
Wind_Speed_850mb
8 8 12 15 17 23 25 29 31 31 29 25 24 28 31 34 39 39 37 35 34 33 30 32 38 43 43 48 53 65 75 82
8 14 21 21 20 23 29 35 39 38 34 32 32 30 29 30 34 40 44 48 47 42 38 37 34 35 42 47 50 56 63 71
8 6 7 16 24 30 32 34 38 41 42 44 42 43 43 41 38 37 38 43 50 52 53 50 44 41 40 43 46 54 63 66
4 10 15 21 26 30 36 42 43 47 51 53 54 53 54 52 49 48 47 46 48 50 54 57 59 56 49 50 51 49 57 65
12 16 20 23 27 35 38 42 48 51 56 58 59 62 63 64 65 66 66 68 67 65 61 60 61 60 59 58 56 56 62 63
17 25 28 30 31 39 45 47 53 55 57 62 66 68 70 72 76 81 83 83 81 81 79 72 66 66 65 63 62 62 63 65
21 21 27 32 38 44 50 53 57 62 67 68 69 73 78 81 85 86 87 88 92 93 93 92 87 78 69 70 72 71 69 69
25 32 31 32 30 35 37 42 52 66 71 73 76 79 80 80 82 86 90 92 96 99 99 101 101 99 93 82 79 80 80 79
29 31 38 43 48 48 50 57 67 72 75 77 78 81 84 87 92 98 101 105 108 111 111 112 111 108 106 104 99 95 91 87
30 35 33 41 50 57 65 70 74 76 78 79 77 82 87 96 102 108 109 116 120 122 126 128 129 122 119 114 107 111 110 102
34 40 46 51 58 66 71 76 78 80 85 91 94 96 93 94 95 94 95 107 112 125 134 136 138 136 133 120 97 100 117 119
44 49 51 57 65 71 75 80 84 93 99 102 102 103 103 103 101 100 100 105 107 112 124 128 132 139 135 113 91 94 99 105
52 55 59 65 71 80 87 93 97 99 101 103 105 105 105 103 104 98 88 84 89 93 102 103 100 99 99 95 89 86 91 100
53 58 60 66 77 88 93 93 96 98 100 103 104 101 94 89 87 86 80 77 79 79 84 90 87 88 85 84 82 83 86 95
54 56 65 74 81 84 85 85 90 96 99 99 98 90 82 79 80 81 81 80 79 80 86 92 94 90 87 86 80 70 62 70
51 60 72 78 79 77 75 79 86 89 92 93 86 82 83 80 77 74 77 77 82 88 92 93 95 88 85 84 87 86 79 78
53 65 73 75 76 70 69 73 80 87 86 83 83 82 81 82 85 73 68 70 73 78 83 94 95 92 88 85 84 82 80 85
60 67 67 68 66 62 67 72 76 80 80 80 80 79 78 79 83 88 89 76 74 74 74 77 83 81 80 78 77 74 71 84
64 62 59 59 57 59 65 69 74 73 74 74 77 76 77 80 83 86 89 93 97 81 76 74 73 71 68 67 66 72 71 75
59 55 55 53 52 56 61 68 72 71 73 73 73 72 72 73 76 79 82 86 91 96 91 77 74 61 61 61 61 65 70 68
Wind_Direction_850mb
78 27 34 35 23 13 14 21 23 23 23 23 14 3 1 2 357 350 344 340 338 337 321 303 292 287 277 271 267 265 263 264
55 34 360 6 15 12 7 5 7 10 8 8 8 7 2 6 352 344 341 339 339 336 330 325 314 296 287 282 275 267 266 266
27 49 18 6 3 358 359 358 356 353 351 351 354 353 356 358 350 339 332 330 330 331 331 331 322 311 303 288 283 277 272 268
357 16 2 355 349 350 346 344 345 343 341 341 342 343 342 342 339 335 332 331 327 322 319 319 321 322 318 303 294 280 274 273
313 326 330 332 337 340 341 337 332 333 331 331 330 330 330 328 324 322 322 322 322 322 319 315 312 313 314 312 307 297 287 277
269 296 307 307 312 326 329 333 334 332 326 322 323 322 320 317 315 314 314 314 313 311 310 309 307 306 306 305 306 305 300 291
276 276 278 282 291 308 314 318 321 324 324 320 316 314 314 312 310 308 307 305 305 304 304 302 301 300 301 302 302 300 296 294
306 292 289 287 288 288 291 288 303 310 314 314 313 311 309 307 304 303 303 302 300 300 298 297 296 296 295 293 292 293 293 294
299 293 299 287 284 285 292 298 310 314 314 314 312 310 308 306 302 300 299 297 295 293 292 292 290 291 292 292 290 286 286 288
299 297 294 289 290 297 303 312 314 314 313 311 306 302 300 299 298 298 296 294 291 289 288 288 286 284 284 285 285 285 284 282
287 293 296 300 303 306 310 313 314 312 309 307 304 301 297 294 292 289 285 286 287 288 288 287 286 282 282 282 279 278 279 280
290 301 305 308 311 313 315 316 314 312 310 308 307 306 303 301 298 294 288 283 282 281 282 284 286 285 283 283 278 272 270 271
301 308 313 315 317 317 316 317 315 313 311 311 310 310 309 308 306 305 300 291 286 285 284 284 285 285 285 283 279 274 269 267
303 309 313 315 317 315 316 316 314 313 314 315 315 315 315 314 313 312 310 301 293 289 288 288 288 287 288 285 279 274 268 263
306 310 314 317 317 317 318 317 316 316 318 320 320 319 318 317 315 310 305 300 295 293 291 292 292 291 292 290 283 272 276 272
307 311 314 317 317 319 320 318 318 319 322 323 321 322 319 317 314 307 302 299 298 295 293 293 292 291 292 289 286 283 282 281
306 311 315 316 317 322 321 320 322 324 323 326 326 324 321 317 314 316 301 299 296 294 292 292 290 291 290 287 283 278 272 270
310 314 317 315 318 322 322 326 326 323 328 330 329 326 322 319 315 309 319 315 306 302 299 296 295 295 293 289 285 279 271 262
311 316 315 315 320 324 327 328 327 331 333 334 332 328 327 323 317 312 309 309 316 329 316 306 303 301 297 294 289 280 269 264
311 315 312 316 323 326 330 332 329 339 339 337 333 331 327 325 320 316 311 310 310 317 326 332 327 315 310 305 295 281 269 266